Weather in Sanskoye

Russia / Ryazan Oblast     54°22′40″N   40°45′51″E
temp.,
°C
wind,
m/s
gust,
m/s
humid.,
%
clouds,
%
prec.,
mm/h
press.,
hPa
HPBL,
m
17 june, thu
thu1700:00+14n38773 0.0 1017130
03:00+11n36780 0.0 101982
06:00+13nne37830 0.0 1020180
09:00+19ne35620 0.0 1021490
12:00+22ne34475 0.0 10221614
15:00+24nne35463 0.0 10221937
18:00+21nne48636 0.0 1023277
21:00+16ne357685 0.0 102569
18 june, fri
fri1800:00+13ne22820 0.0 102620
03:00+12ne22850 0.0 102719
06:00+14ene24830 0.0 1028115
09:00+19ene236711 0.0 1028496
12:00+22ene13544 0.0 10281393
15:00+23ene12524 0.0 10271372
18:00+23se12644 0.0 1027913
21:00+17ssw228253 0.0 102714
19 june, sat
sat1900:00+15ssw228582 0.0 102812
03:00+14sw11880 0.0 102810
06:00+16sw228412 0.0 102989
09:00+20sw22735 0.0 1028479
12:00+23sw33642 0.0 1027969
15:00+24sw33600 0.0 10261166
18:00+23sw23690 0.0 1025480
21:00+18wsw22825 0.0 102512
20 june, sun
sun2000:00+15wsw22871 0.0 102612
03:00+14wsw22884 0.0 102610
06:00+17wsw12843 0.0 102674
09:00+21sw22702 0.0 1025435
12:00+24sw22600 0.0 1025870
15:00+25sw22570 0.0 10231004
18:00+25wsw12650 0.0 1023843
21:00+20sw01780 0.0 102211
21 june, mon
mon2100:00+18ssw1184100 0.0 102311
03:00+16s0186100 0.0 102311
06:00+19e118396 0.0 102344
09:00+23se227131 0.0 1023433
12:00+26s2263100 0.0 1022912
15:00+25s2265100 0.0 1021714
18:00+26nnw0171100 0.0 1021530
21:00+21ne1182100 0.0 102111